Location: 5810 Zion Rd, Cleves, OH 45002, USA
(39.1922°N, 84.7113°W)
Time: 03:16:12
(UTC-05:00)

Transit 2A - All Passes

Search period start: 14 December 2019 00:00
Search period end: 24 December 2019 00:00
Orbit: 602 x 957 km, 66.7° (Epoch: 14 December)

Date Brightness Start Highest point End Pass type
(mag) Time Alt. Az. Time Alt. Az. Time Alt. Az.
14 Dec - 06:14:51 10° SSW 06:19:41 67° ESE 06:24:10 10° NE visible
14 Dec - 08:00:35 10° W 08:03:11 15° NW 08:05:44 10° NNW daylight
14 Dec - 15:01:59 10° NNW 15:06:10 39° ENE 15:10:38 10° SE daylight
14 Dec - 16:45:41 10° WNW 16:49:04 21° WSW 16:52:38 10° SSW daylight
15 Dec - 05:41:02 10° S 05:45:37 42° ESE 05:49:54 10° NE visible
15 Dec - 07:25:18 10° W 07:28:52 21° NW 07:32:18 10° N daylight
15 Dec - 14:28:10 10° N 14:31:57 26° NE 14:35:56 10° ESE daylight
15 Dec - 16:11:02 10° NW 16:15:04 32° WSW 16:19:22 10° S daylight
16 Dec - 05:07:32 10° SSE 05:11:36 27° ESE 05:15:25 10° NE visible
16 Dec - 06:50:25 10° WSW 06:54:37 30° NW 06:58:35 10° N visible
16 Dec - 13:54:33 10° N 13:57:40 18° NE 14:00:56 10° E daylight
16 Dec - 15:36:39 10° NW 15:41:01 50° WSW 15:45:44 10° S daylight
17 Dec - 04:34:27 10° SSE 04:37:36 17° ESE 04:40:37 10° ENE visible
17 Dec - 06:15:50 10° SW 06:20:25 46° WNW 06:24:44 10° NNE visible
17 Dec - 13:21:17 10° NNE 13:23:20 13° NE 13:25:25 10° ENE daylight
17 Dec - 15:02:25 10° NNW 15:06:56 79° WSW 15:11:49 10° SSE daylight
18 Dec - 04:02:32 10° ESE 04:03:39 11° ESE 04:04:46 10° E visible
18 Dec - 05:41:29 10° SW 05:46:16 72° WNW 05:50:44 10° NNE visible
18 Dec - 14:28:20 10° NNW 14:32:49 67° ENE 14:37:39 10° SE daylight
18 Dec - 16:13:42 10° W 16:15:29 12° WSW 16:17:18 10° SW daylight
19 Dec - 05:07:21 10° SSW 05:12:10 73° ESE 05:16:37 10° NNE visible
19 Dec - 06:53:27 10° WNW 06:55:43 13° NW 06:57:56 10° NNW visible
19 Dec - 13:54:23 10° NNW 13:58:40 43° ENE 14:03:15 10° SE daylight
19 Dec - 15:38:16 10° WNW 15:41:31 19° WSW 15:44:57 10° SSW daylight
20 Dec - 04:33:29 10° S 04:38:05 46° ESE 04:42:23 10° NE visible
20 Dec - 06:18:03 10° W 06:21:23 19° NW 06:24:37 10° N visible
20 Dec - 13:20:32 10° N 13:24:28 29° NE 13:28:37 10° ESE daylight
20 Dec - 15:03:33 10° NW 15:07:31 29° WSW 15:11:46 10° S daylight
21 Dec - 03:59:55 10° S 04:04:03 29° ESE 04:07:57 10° NE visible
21 Dec - 05:43:05 10° WSW 05:47:07 28° NW 05:50:57 10° N visible
21 Dec - 12:46:51 10° N 12:50:12 20° NE 12:53:41 10° E daylight
21 Dec - 14:29:07 10° NW 14:33:29 46° WSW 14:38:12 10° S daylight
22 Dec - 03:26:44 10° SSE 03:30:03 19° ESE 03:33:14 10° ENE night (unlit)
22 Dec - 05:08:26 10° SW 05:12:54 41° WNW 05:17:07 10° NNE visible
22 Dec - 12:13:28 10° NNE 12:15:51 14° NE 12:18:19 10° E daylight
22 Dec - 13:54:52 10° NNW 13:59:25 73° WSW 14:04:20 10° SSE daylight
23 Dec - 02:54:25 10° SE 02:56:06 12° ESE 02:57:45 10° E night (unlit)
23 Dec - 04:34:02 10° SW 04:38:44 65° WNW 04:43:10 10° NNE visible
23 Dec - 13:20:46 10° NNW 13:25:18 73° ENE 13:30:13 10° SE daylight
23 Dec - 15:06:38 10° W 15:07:56 11° WSW 15:09:15 10° WSW daylight
